This demonstration page uses our WeatherBlox Daily Observations layout. Learn more.

Left ArrowRight Arrow

39.12711, -84.51439

Hourly Observations for October 5, 2019

Temp ( °F °C ) Dew Point ( °F °C ) Humidity (%) Winds ( mph kmh ) Pressure ( in mb ) Visibility ( mi km ) Precip ( " mm )
12:53 am 00:53 Clear 53 11.7 47 8.3 80 80 NE 8 13 30.27 1025 10 16 0.00 0.00
1:53 am 01:53 Clear 53 11.7 46 7.8 77 77 NE 6 9 30.25 1024 10 16 0.00 0.00
2:53 am 02:53 Clear 53 11.7 45 7.2 74 74 NE 8 13 30.25 1024 10 16 0.00 0.00
3:53 am 03:53 Clear 51 10.6 44 6.7 77 77 NE 7 11 30.22 1024 10 16 0.00 0.00
4:53 am 04:53 Clear 50 10 44 6.7 80 80 NE 5 7 30.21 1023 10 16 0.00 0.00
5:53 am 05:53 Clear 48 8.9 43 6.1 83 83 NE 5 7 30.21 1023 10 16 0.00 0.00
6:53 am 06:53 Clear 47 8.3 44 6.7 90 90 NE 3 6 30.19 1023 10 16 0.00 0.00
7:53 am 07:53 Sunny 46 7.8 44 6.7 93 93 Calm 30.20 1023 10 16 0.00 0.00
8:53 am 08:53 Sunny 51 10.6 45 7.2 80 80 ENE 3 6 30.20 1023 10 16 0.00 0.00
9:53 am 09:53 Sunny 54 12.2 46 7.8 75 75 ENE 7 11 30.19 1022 10 16 0.00 0.00
10:53 am 10:53 Sunny 59 15 47 8.3 64 64 NNE 5 7 30.18 1022 10 16 0.00 0.00
11:53 am 11:53 Sunny 64 17.8 48 8.9 56 56 NE 5 7 30.14 1021 10 16 0.00 0.00
12:53 pm 12:53 Sunny 70 21.1 50 10 49 49 Calm 30.11 1020 10 16 0.00 0.00
1:53 pm 13:53 Sunny 73 22.8 49 9.4 43 43 VRB 5 7 30.06 1018 10 16 0.00 0.00
2:53 pm 14:53 Sunny 76 24.4 50 10 40 40 VRB 3 6 30.04 1017 10 16 0.00 0.00
3:53 pm 15:53 Sunny 78 25.6 49 9.4 36 36 Calm 30.01 1016 10 16 0.00 0.00
4:53 pm 16:53 Sunny 79 26.1 48 8.9 34 34 Calm 30.00 1016 10 16 0.00 0.00
5:53 pm 17:53 Sunny 78 25.6 48 8.9 35 35 Calm 30.01 1016 10 16 0.00 0.00
6:53 pm 18:53 Sunny 72 22.2 55 12.8 55 55 Calm 29.99 1016 10 16 0.00 0.00
7:53 pm 19:53 Clear 64 17.8 54 12.2 70 70 Calm 29.99 1016 10 16 0.00 0.00
8:53 pm 20:53 Clear 60 15.6 54 12.2 80 80 Calm 30.00 1016 10 16 0.00 0.00
9:53 pm 21:53 Clear 60 15.6 54 12.2 80 80 Calm 30.01 1016 10 16 0.00 0.00
10:53 pm 22:53 Clear 58 14.4 54 12.2 87 87 Calm 30.01 1016 10 16 0.00 0.00
11:53 pm 23:53 Mostly Clear 57 13.9 54 12.2 90 90 Calm 30.01 1016 10 16 0.00 0.00

Powered by AerisWeather